Temp: 17.7°C   Baro: 1015.4mb
  Wind: 14.1mph   Dir: W (269°)
  Rain: 9.6mm (0.0mm/hr)
  Solar: 717W/m2  Hum: 65%
 
Bath Spa Weather Historical Data
 
Daily Summary for August 19, 2019 Units:  Metric    English   Both
Next Day »
Daily Weekly Monthly Yearly Custom
  Current: High: Low: Average:
Temperature: 17.7 °C 17.9 °C 12.1 °C 13.6 °C
Dew Point: 10.8 °C 13.8 °C 9.9 °C 11.1 °C
Humidity: 64% 92% 64% 85%
Wind Speed: 19.5km/h 38.6km/h 0.0km/h 7.8km/h
Wind Gust: 35.4km/h 38.6km/h - -
Wind directionWest - - West
Pressure: 1015.1 hPa 1015.1 hPa 1009.4 hPa -
Precipitation: 9.7 mm      
Historical Graphs
 
 
Tabular Data for August 19, 2019
Time Temperature Dew Point Pressure Wind direction Wind Speed Wind Gust Humidity Rainfall Rate (Hourly) solar
00:00 13.3 °C 10.5 °C 1009.4 hPa SW 14.3 km/h 20.9 km/h 83% 0.0 mm 0.00 W/m2
00:05 13.4 °C 10.6 °C 1009.4 hPa SW 11.1 km/h 16.1 km/h 83% 0.0 mm 0.00 W/m2
00:10 13.3 °C 10.7 °C 1009.4 hPa WSW 9.7 km/h 16.1 km/h 84% 0.0 mm 0.00 W/m2
00:16 13.2 °C 10.6 °C 1009.4 hPa SW 7.9 km/h 17.7 km/h 84% 0.0 mm 0.00 W/m2
00:20 13.2 °C 10.6 °C 1009.7 hPa WSW 7.9 km/h 16.1 km/h 84% 0.0 mm 0.00 W/m2
00:25 13.2 °C 10.6 °C 1009.4 hPa WSW 16.3 km/h 16.1 km/h 84% 0.0 mm 0.00 W/m2
00:30 13.1 °C 10.5 °C 1009.4 hPa WSW 14.3 km/h 17.7 km/h 84% 0.0 mm 0.00 W/m2
00:35 13.0 °C 10.4 °C 1009.4 hPa WSW 13.0 km/h 12.9 km/h 84% 0.0 mm 0.00 W/m2
00:40 13.0 °C 10.4 °C 1009.4 hPa WSW 7.9 km/h 14.5 km/h 84% 0.0 mm 0.00 W/m2
00:45 13.0 °C 10.4 °C 1009.7 hPa WSW 4.7 km/h 14.5 km/h 84% 0.0 mm 0.00 W/m2
00:50 12.9 °C 10.3 °C 1009.7 hPa WSW 9.7 km/h 9.7 km/h 84% 0.0 mm 0.00 W/m2
00:55 12.9 °C 10.4 °C 1009.7 hPa WSW 7.9 km/h 11.3 km/h 85% 0.0 mm 0.00 W/m2
01:00 12.9 °C 10.4 °C 1009.7 hPa WSW 7.9 km/h 19.3 km/h 85% 0.0 mm 0.00 W/m2
01:05 12.9 °C 10.4 °C 1009.7 hPa SW 13.0 km/h 19.3 km/h 85% 0.0 mm 0.00 W/m2
01:10 12.9 °C 10.4 °C 1009.7 hPa WSW 13.0 km/h 20.9 km/h 85% 0.0 mm 0.00 W/m2
01:15 12.9 °C 10.3 °C 1009.7 hPa WSW 6.4 km/h 12.9 km/h 84% 0.0 mm 0.00 W/m2
01:20 12.8 °C 10.3 °C 1009.7 hPa SW 1.4 km/h 12.9 km/h 85% 0.0 mm 0.00 W/m2
01:25 12.8 °C 10.3 °C 1009.7 hPa WSW 4.7 km/h 12.9 km/h 85% 0.0 mm 0.00 W/m2
01:30 12.7 °C 10.2 °C 1009.7 hPa WSW 6.4 km/h 16.1 km/h 85% 0.0 mm 0.00 W/m2
01:35 12.8 °C 10.3 °C 1009.7 hPa West 7.9 km/h 25.7 km/h 85% 0.0 mm 0.00 W/m2
01:40 12.8 °C 10.3 °C 1009.7 hPa WSW 11.1 km/h 17.7 km/h 85% 0.0 mm 0.00 W/m2
01:45 12.9 °C 10.4 °C 1009.7 hPa SW 9.7 km/h 12.9 km/h 85% 0.0 mm 0.00 W/m2
01:50 13.0 °C 10.5 °C 1009.7 hPa West 6.4 km/h 19.3 km/h 85% 0.0 mm 0.00 W/m2
01:55 13.0 °C 10.5 °C 1009.7 hPa SW 17.7 km/h 20.9 km/h 85% 0.0 mm 0.00 W/m2
02:00 13.0 °C 10.5 °C 1009.7 hPa WSW 9.7 km/h 17.7 km/h 85% 0.0 mm 0.00 W/m2
02:05 12.9 °C 10.4 °C 1009.7 hPa WSW 4.7 km/h 14.5 km/h 85% 0.0 mm 0.00 W/m2
02:10 12.9 °C 10.4 °C 1009.7 hPa WSW 9.7 km/h 20.9 km/h 85% 0.0 mm 0.00 W/m2
02:15 12.8 °C 10.3 °C 1009.7 hPa West 6.4 km/h 9.7 km/h 85% 0.0 mm 0.00 W/m2
02:20 12.7 °C 10.2 °C 1009.7 hPa WSW 3.2 km/h 12.9 km/h 85% 0.0 mm 0.00 W/m2
02:25 12.7 °C 10.2 °C 1009.7 hPa WSW 4.7 km/h 12.9 km/h 85% 0.0 mm 0.00 W/m2
02:30 12.7 °C 10.2 °C 1009.7 hPa WSW 3.2 km/h 12.9 km/h 85% 0.0 mm 0.00 W/m2
02:35 12.6 °C 10.3 °C 1009.7 hPa SW 13.0 km/h 16.1 km/h 86% 0.0 mm 0.00 W/m2
02:40 12.6 °C 10.3 °C 1009.7 hPa WNW 11.1 km/h 19.3 km/h 86% 0.0 mm 0.00 W/m2
02:45 12.6 °C 10.3 °C 1009.7 hPa WNW 4.7 km/h 11.3 km/h 86% 0.0 mm 0.00 W/m2
02:50 12.7 °C 10.4 °C 1009.7 hPa West 16.1 km/h 16.1 km/h 86% 0.0 mm 0.00 W/m2
02:55 12.7 °C 10.2 °C 1010.0 hPa West 6.4 km/h 14.5 km/h 85% 0.0 mm 0.00 W/m2
03:00 12.7 °C 10.2 °C 1010.0 hPa WNW 1.4 km/h 11.3 km/h 85% 0.0 mm 0.00 W/m2
03:05 12.6 °C 10.1 °C 1009.7 hPa West 13.0 km/h 12.9 km/h 85% 0.0 mm 0.00 W/m2
03:10 12.6 °C 10.1 °C 1009.7 hPa WSW 9.7 km/h 14.5 km/h 85% 0.0 mm 0.00 W/m2
03:15 12.6 °C 10.3 °C 1010.0 hPa West 3.2 km/h 8.0 km/h 86% 0.0 mm 0.00 W/m2
03:20 12.6 °C 10.3 °C 1010.0 hPa West 4.7 km/h 11.3 km/h 86% 0.0 mm 0.00 W/m2
03:25 12.6 °C 10.3 °C 1010.0 hPa WNW 1.4 km/h 12.9 km/h 86% 0.0 mm 0.00 W/m2
03:30 12.5 °C 10.2 °C 1010.0 hPa West 7.9 km/h 12.9 km/h 86% 0.0 mm 0.00 W/m2
03:35 12.5 °C 10.2 °C 1010.0 hPa West 7.9 km/h 11.3 km/h 86% 0.0 mm 0.00 W/m2
03:40 12.5 °C 10.2 °C 1010.0 hPa Calm   6.4 km/h 86% 0.0 mm 0.00 W/m2
03:45 12.5 °C 10.2 °C 1010.0 hPa Calm   8.0 km/h 86% 0.0 mm 0.00 W/m2
03:50 12.5 °C 10.2 °C 1010.0 hPa Calm   8.0 km/h 86% 0.0 mm 0.00 W/m2
03:55 12.4 °C 10.1 °C 1010.0 hPa WSW 3.2 km/h 16.1 km/h 86% 0.0 mm 0.00 W/m2
04:00 12.4 °C 10.1 °C 1010.0 hPa WNW 7.9 km/h 11.3 km/h 86% 0.0 mm 0.00 W/m2
04:05 12.4 °C 10.1 °C 1010.0 hPa Calm   14.5 km/h 86% 0.0 mm 0.00 W/m2
04:10 12.3 °C 10.0 °C 1010.0 hPa WSW 6.4 km/h 9.7 km/h 86% 0.0 mm 0.00 W/m2
04:15 12.3 °C 10.0 °C 1010.0 hPa WSW 6.4 km/h 14.5 km/h 86% 0.0 mm 0.00 W/m2
04:20 12.3 °C 10.0 °C 1010.0 hPa West 4.7 km/h 4.8 km/h 86% 0.0 mm 0.00 W/m2
04:25 12.2 °C 9.9 °C 1010.0 hPa Calm   9.7 km/h 86% 0.0 mm 0.00 W/m2
04:30 12.2 °C 9.9 °C 1010.0 hPa Calm   8.0 km/h 86% 0.0 mm 0.00 W/m2
04:35 12.2 °C 10.1 °C 1010.4 hPa Calm   4.8 km/h 87% 0.0 mm 0.00 W/m2
04:40 12.2 °C 10.1 °C 1010.4 hPa Calm   3.2 km/h 87% 0.0 mm 0.00 W/m2
04:45 12.2 °C 10.1 °C 1010.4 hPa West 8.0 km/h 8.0 km/h 87% 0.0 mm 0.00 W/m2
04:50 12.2 °C 10.1 °C 1010.4 hPa West 4.7 km/h 6.4 km/h 87% 0.0 mm 0.00 W/m2
04:55 12.3 °C 10.2 °C 1010.4 hPa West 1.4 km/h 4.8 km/h 87% 0.0 mm 0.00 W/m2
05:00 12.3 °C 10.2 °C 1010.4 hPa Calm   9.7 km/h 87% 0.0 mm 0.00 W/m2
05:05 12.3 °C 10.2 °C 1010.4 hPa Calm   9.7 km/h 87% 0.0 mm 0.00 W/m2
05:10 12.3 °C 10.2 °C 1010.7 hPa Calm   6.4 km/h 87% 0.0 mm 0.00 W/m2
05:15 12.3 °C 10.2 °C 1010.7 hPa WSW 6.4 km/h 8.0 km/h 87% 0.0 mm 0.00 W/m2
05:20 12.3 °C 10.2 °C 1010.7 hPa WNW 4.7 km/h 8.0 km/h 87% 0.0 mm 0.00 W/m2
05:25 12.3 °C 10.2 °C 1010.7 hPa West 4.7 km/h 9.7 km/h 87% 0.0 mm 0.00 W/m2
05:30 12.3 °C 10.2 °C 1010.7 hPa WNW 4.7 km/h 11.3 km/h 87% 0.0 mm 0.00 W/m2
05:35 12.3 °C 10.2 °C 1010.7 hPa Calm   8.0 km/h 87% 0.0 mm 0.00 W/m2
05:40 12.3 °C 10.2 °C 1010.7 hPa West 11.1 km/h 11.3 km/h 87% 0.3 mm 0.00 W/m2
05:45 12.2 °C 10.3 °C 1010.7 hPa West 1.4 km/h 6.4 km/h 88% 0.5 mm 0.00 W/m2
05:50 12.2 °C 10.3 °C 1010.7 hPa Calm   4.8 km/h 88% 0.5 mm 0.00 W/m2
05:55 12.2 °C 10.4 °C 1010.7 hPa West 6.4 km/h 6.4 km/h 89% 0.5 mm 0.00 W/m2
06:00 12.2 °C 10.4 °C 1010.7 hPa West 1.4 km/h 4.8 km/h 89% 0.5 mm 0.00 W/m2
06:05 12.2 °C 10.4 °C 1010.7 hPa SW 4.7 km/h 4.8 km/h 89% 0.5 mm 0.00 W/m2
06:10 12.2 °C 10.4 °C 1011.1 hPa SW 3.2 km/h 4.8 km/h 89% 0.5 mm 0.00 W/m2
06:15 12.2 °C 10.4 °C 1011.1 hPa Calm   3.2 km/h 89% 0.5 mm 0.00 W/m2
06:20 12.2 °C 10.4 °C 1011.1 hPa SW 4.7 km/h 6.4 km/h 89% 0.5 mm 0.00 W/m2
06:25 12.2 °C 10.4 °C 1011.1 hPa WSW 3.2 km/h 8.0 km/h 89% 0.5 mm 11.00 W/m2
06:30 12.1 °C 10.3 °C 1011.1 hPa WSW 1.4 km/h 6.4 km/h 89% 0.5 mm 16.00 W/m2
06:35 12.1 °C 10.3 °C 1011.4 hPa West 4.7 km/h 8.0 km/h 89% 0.5 mm 25.00 W/m2
06:40 12.1 °C 10.3 °C 1011.4 hPa WSW 11.3 km/h 11.3 km/h 89% 0.3 mm 35.00 W/m2
06:45 12.2 °C 10.4 °C 1011.4 hPa WSW 4.7 km/h 8.0 km/h 89% 0.0 mm 58.00 W/m2
06:50 12.2 °C 10.4 °C 1011.4 hPa WSW 6.4 km/h 11.3 km/h 89% 0.5 mm 44.00 W/m2
06:55 12.1 °C 10.3 °C 1011.4 hPa WSW 3.2 km/h 8.0 km/h 89% 0.5 mm 30.00 W/m2
07:00 12.1 °C 10.3 °C 1011.4 hPa Calm   4.8 km/h 89% 0.5 mm 35.00 W/m2
07:05 12.1 °C 10.3 °C 1011.4 hPa WSW 3.2 km/h 9.7 km/h 89% 0.5 mm 60.00 W/m2
07:10 12.2 °C 10.4 °C 1011.4 hPa SW 3.2 km/h 11.3 km/h 89% 0.5 mm 102.00 W/m2
07:15 12.2 °C 10.4 °C 1011.7 hPa WSW 3.2 km/h 14.5 km/h 89% 0.5 mm 97.00 W/m2
07:20 12.3 °C 10.5 °C 1011.7 hPa WSW 4.7 km/h 11.3 km/h 89% 0.5 mm 86.00 W/m2
07:25 12.4 °C 10.8 °C 1011.7 hPa WSW 3.2 km/h 8.0 km/h 90% 0.5 mm 69.00 W/m2
07:30 12.5 °C 10.9 °C 1011.7 hPa WSW 7.9 km/h 9.7 km/h 90% 0.5 mm 72.00 W/m2
07:35 12.5 °C 10.9 °C 1011.7 hPa WSW 3.2 km/h 11.3 km/h 90% 0.5 mm 107.00 W/m2
07:40 12.5 °C 10.9 °C 1011.7 hPa SW 11.1 km/h 17.7 km/h 90% 0.5 mm 132.00 W/m2
07:45 12.6 °C 10.8 °C 1011.7 hPa West 9.7 km/h 14.5 km/h 89% 0.8 mm 109.00 W/m2
07:50 12.6 °C 10.8 °C 1011.7 hPa West 7.9 km/h 12.9 km/h 89% 0.3 mm 56.00 W/m2
07:55 12.7 °C 11.1 °C 1012.1 hPa West 4.7 km/h 4.8 km/h 90% 0.8 mm 35.00 W/m2
08:00 12.6 °C 11.0 °C 1012.1 hPa West 1.4 km/h 6.4 km/h 90% 1.5 mm 40.00 W/m2
08:05 12.6 °C 11.0 °C 1012.1 hPa Calm   1.6 km/h 90% 1.5 mm 46.00 W/m2
08:10 12.7 °C 11.1 °C 1012.1 hPa Calm   3.2 km/h 90% 1.5 mm 62.00 W/m2
08:15 12.6 °C 11.0 °C 1012.1 hPa West 3.2 km/h 6.4 km/h 90% 1.5 mm 128.00 W/m2
08:20 12.6 °C 11.2 °C 1012.1 hPa Calm   11.3 km/h 91% 1.5 mm 223.00 W/m2
08:25 12.8 °C 11.4 °C 1012.4 hPa WSW 1.4 km/h 9.7 km/h 91% 1.5 mm 162.00 W/m2
08:30 12.9 °C 11.5 °C 1012.4 hPa Calm   8.0 km/h 91% 1.5 mm 58.00 W/m2
08:35 12.8 °C 11.4 °C 1012.4 hPa WSW 4.7 km/h 14.5 km/h 91% 3.3 mm 39.00 W/m2
08:40 12.8 °C 11.4 °C 1012.4 hPa Calm   1.6 km/h 91% 3.8 mm 47.00 W/m2
08:45 12.8 °C 11.4 °C 1012.4 hPa Calm   11.3 km/h 91% 3.8 mm 63.00 W/m2
08:50 12.8 °C 11.4 °C 1012.4 hPa Calm   3.2 km/h 91% 4.3 mm 95.00 W/m2
08:55 12.8 °C 11.4 °C 1012.4 hPa Calm     91% 3.6 mm 137.00 W/m2
09:00 12.9 °C 11.5 °C 1012.8 hPa Calm   4.8 km/h 91% 3.3 mm 93.00 W/m2
09:05 13.0 °C 11.6 °C 1012.8 hPa West 6.4 km/h 9.7 km/h 91% 3.3 mm 76.00 W/m2
09:10 13.2 °C 11.9 °C 1012.8 hPa WSW 13.0 km/h 12.9 km/h 92% 3.8 mm 86.00 W/m2
09:15 13.0 °C 11.7 °C 1012.8 hPa West 9.7 km/h 16.1 km/h 92% 3.8 mm 116.00 W/m2
09:20 13.0 °C 11.7 °C 1012.8 hPa WSW 9.7 km/h 14.5 km/h 92% 4.3 mm 114.00 W/m2
09:25 13.2 °C 11.9 °C 1012.8 hPa WSW 3.2 km/h 9.7 km/h 92% 4.3 mm 125.00 W/m2
09:30 13.2 °C 11.9 °C 1012.8 hPa WSW 3.2 km/h 11.3 km/h 92% 3.8 mm 84.00 W/m2
09:35 13.1 °C 11.8 °C 1013.1 hPa WSW 7.9 km/h 12.9 km/h 92% 3.0 mm 83.00 W/m2
09:40 13.1 °C 11.8 °C 1013.1 hPa WSW 1.4 km/h 6.4 km/h 92% 3.0 mm 148.00 W/m2
09:45 13.2 °C 11.9 °C 1013.1 hPa WSW 12.9 km/h 12.9 km/h 92% 2.8 mm 174.00 W/m2
09:50 13.3 °C 12.0 °C 1013.1 hPa West 11.1 km/h 12.9 km/h 92% 2.3 mm 199.00 W/m2
09:55 13.4 °C 12.1 °C 1013.1 hPa West 6.4 km/h 8.0 km/h 92% 2.3 mm 257.00 W/m2
10:00 13.7 °C 12.4 °C 1013.1 hPa WSW 3.2 km/h 9.7 km/h 92% 2.3 mm 239.00 W/m2
10:05 13.7 °C 12.4 °C 1013.4 hPa WSW 4.7 km/h 11.3 km/h 92% 2.0 mm 239.00 W/m2
10:10 13.8 °C 12.5 °C 1013.1 hPa SW 1.4 km/h 6.4 km/h 92% 1.5 mm 229.00 W/m2
10:15 13.9 °C 12.6 °C 1013.1 hPa SW 6.4 km/h 8.0 km/h 92% 1.0 mm 206.00 W/m2
10:20 13.8 °C 12.5 °C 1013.4 hPa SW 7.9 km/h 14.5 km/h 92% 1.3 mm 204.00 W/m2
10:25 13.8 °C 12.4 °C 1013.4 hPa West 9.7 km/h 12.9 km/h 91% 1.0 mm 274.00 W/m2
10:30 13.8 °C 12.4 °C 1013.4 hPa West 6.4 km/h 9.7 km/h 91% 1.0 mm 294.00 W/m2
10:35 13.7 °C 12.3 °C 1013.4 hPa West 7.9 km/h 16.1 km/h 91% 0.5 mm 146.00 W/m2
10:40 13.6 °C 12.0 °C 1013.4 hPa WSW 7.9 km/h 12.9 km/h 90% 0.5 mm 97.00 W/m2
10:45 13.4 °C 11.8 °C 1013.8 hPa WSW 9.7 km/h 16.1 km/h 90% 0.8 mm 109.00 W/m2
10:50 13.2 °C 11.6 °C 1013.8 hPa West 4.7 km/h 14.5 km/h 90% 0.8 mm 84.00 W/m2
10:55 13.2 °C 11.6 °C 1014.1 hPa West 6.4 km/h 8.0 km/h 90% 1.0 mm 76.00 W/m2
11:00 13.0 °C 11.4 °C 1014.1 hPa West 13.0 km/h 16.1 km/h 90% 1.0 mm 107.00 W/m2
11:05 12.9 °C 11.3 °C 1014.1 hPa WSW 7.9 km/h 9.7 km/h 90% 1.5 mm 227.00 W/m2
11:10 12.8 °C 11.4 °C 1013.8 hPa WSW 3.2 km/h 9.7 km/h 91% 1.8 mm 316.00 W/m2
11:15 13.0 °C 11.6 °C 1013.8 hPa WSW 3.2 km/h 8.0 km/h 91% 1.8 mm 336.00 W/m2
11:20 13.4 °C 12.0 °C 1014.1 hPa WSW 6.4 km/h 12.9 km/h 91% 1.5 mm 394.00 W/m2
11:25 13.5 °C 12.1 °C 1014.1 hPa WNW 1.4 km/h 12.9 km/h 91% 1.5 mm 487.00 W/m2
11:30 14.2 °C 12.9 °C 1014.1 hPa WNW 3.2 km/h 9.7 km/h 92% 1.5 mm 555.00 W/m2
11:35 14.6 °C 13.1 °C 1014.1 hPa West 17.7 km/h 17.7 km/h 91% 1.3 mm 842.00 W/m2
11:40 15.3 °C 13.8 °C 1014.1 hPa WSW 9.7 km/h 11.3 km/h 91% 1.3 mm 925.00 W/m2
11:45 15.3 °C 13.5 °C 1014.1 hPa West 4.7 km/h 16.1 km/h 89% 1.0 mm 512.00 W/m2
11:50 15.4 °C 13.2 °C 1014.1 hPa WSW 11.1 km/h 24.1 km/h 87% 0.8 mm 318.00 W/m2
11:55 14.8 °C 12.3 °C 1014.1 hPa West 7.9 km/h 17.7 km/h 85% 0.8 mm 295.00 W/m2
12:00 14.8 °C 12.5 °C 1014.1 hPa West 14.3 km/h 14.5 km/h 86% 0.5 mm 299.00 W/m2
12:05 15.3 °C 13.0 °C 1014.1 hPa West 11.1 km/h 14.5 km/h 86% 0.3 mm 443.00 W/m2
12:10 15.4 °C 12.9 °C 1014.1 hPa SW 9.7 km/h 12.9 km/h 85% 0.3 mm 362.00 W/m2
12:15 15.7 °C 13.2 °C 1014.1 hPa WNW 19.5 km/h 19.3 km/h 85% 0.3 mm 494.00 W/m2
12:20 15.5 °C 12.6 °C 1014.1 hPa WSW 17.7 km/h 17.7 km/h 83% 0.3 mm 371.00 W/m2
12:25 15.3 °C 12.2 °C 1014.4 hPa West 7.9 km/h 14.5 km/h 82% 0.3 mm 406.00 W/m2
12:30 15.6 °C 12.4 °C 1014.4 hPa West 17.7 km/h 17.7 km/h 81% 0.3 mm 274.00 W/m2
12:35 15.6 °C 12.2 °C 1014.4 hPa West 24.1 km/h 32.2 km/h 80% 0.3 mm 309.00 W/m2
12:40 15.5 °C 12.1 °C 1014.4 hPa West 22.7 km/h 29.0 km/h 80% 0.3 mm 348.00 W/m2
12:45 15.5 °C 12.3 °C 1014.4 hPa West 11.1 km/h 32.2 km/h 81% 0.3 mm 406.00 W/m2
12:50 15.5 °C 12.4 °C 1014.4 hPa West 17.7 km/h 20.9 km/h 82% 0.0 mm 483.00 W/m2
12:55 15.8 °C 12.7 °C 1014.4 hPa WNW 11.1 km/h 24.1 km/h 82% 0.0 mm 330.00 W/m2
13:00 15.9 °C 12.8 °C 1014.4 hPa WSW 6.4 km/h 16.1 km/h 82% 0.0 mm 360.00 W/m2
13:05 16.0 °C 12.7 °C 1014.4 hPa WSW 11.1 km/h 27.4 km/h 81% 0.0 mm 411.00 W/m2
13:10 16.7 °C 13.2 °C 1014.4 hPa WSW 13.0 km/h 14.5 km/h 80% 0.0 mm 724.00 W/m2
13:15 17.3 °C 13.4 °C 1014.4 hPa WSW 6.4 km/h 12.9 km/h 78% 0.0 mm 540.00 W/m2
13:20 16.8 °C 12.7 °C 1014.4 hPa West 11.1 km/h 22.5 km/h 77% 0.0 mm 367.00 W/m2
13:25 16.8 °C 12.7 °C 1014.4 hPa WSW 7.9 km/h 14.5 km/h 77% 0.0 mm 420.00 W/m2
13:30 17.0 °C 12.1 °C 1014.4 hPa SW 13.0 km/h 30.6 km/h 73% 0.0 mm 967.00 W/m2
13:35 17.7 °C 12.6 °C 1014.4 hPa WNW 7.9 km/h 25.7 km/h 72% 0.0 mm 990.00 W/m2
13:40 17.3 °C 12.0 °C 1014.8 hPa West 17.7 km/h 29.0 km/h 71% 0.0 mm 838.00 W/m2
13:45 17.9 °C 12.8 °C 1014.8 hPa WSW 14.3 km/h 25.7 km/h 72% 0.0 mm 886.00 W/m2
13:50 17.4 °C 11.2 °C 1014.8 hPa NW 13.0 km/h 32.2 km/h 67% 0.0 mm 380.00 W/m2
13:55 17.1 °C 10.7 °C 1014.8 hPa West 38.6 km/h 38.6 km/h 66% 0.0 mm 752.00 W/m2
14:00 17.3 °C 10.7 °C 1014.8 hPa WSW 9.7 km/h 30.6 km/h 65% 0.0 mm 749.00 W/m2
14:05 17.4 °C 11.0 °C 1014.8 hPa WSW 16.3 km/h 37.0 km/h 66% 0.0 mm 752.00 W/m2
14:10 17.9 °C 11.2 °C 1015.1 hPa West 22.7 km/h 29.0 km/h 65% 0.0 mm 807.00 W/m2
14:15 17.4 °C 10.5 °C 1015.1 hPa WNW 17.7 km/h 35.4 km/h 64% 0.0 mm 807.00 W/m2
14:20 17.2 °C 10.8 °C 1015.1 hPa WNW 16.3 km/h 27.4 km/h 66% 0.0 mm 717.00 W/m2
14:25 17.2 °C 10.8 °C 1015.1 hPa WNW 16.3 km/h 37.0 km/h 66% 0.0 mm 765.00 W/m2
14:30 17.4 °C 11.0 °C 1015.1 hPa WNW 9.7 km/h 30.6 km/h 66% 0.0 mm 751.00 W/m2
14:35 17.7 °C 11.0 °C 1015.1 hPa West 22.7 km/h 35.4 km/h 65% 0.0 mm 777.00 W/m2
14:40 17.6 °C 10.9 °C 1015.1 hPa WSW 14.3 km/h 30.6 km/h 65% 0.0 mm 759.00 W/m2
14:45 17.4 °C 11.4 °C 1015.1 hPa WSW 20.9 km/h 27.4 km/h 68% 0.0 mm 773.00 W/m2
14:50 17.4 °C 11.4 °C 1015.1 hPa WNW 9.7 km/h 27.4 km/h 68% 0.0 mm 793.00 W/m2
14:55 17.3 °C 11.1 °C 1015.1 hPa West 17.7 km/h 37.0 km/h 67% 0.0 mm 197.00 W/m2
15:00 17.3 °C 11.1 °C 1015.1 hPa WNW 22.7 km/h 35.4 km/h 67% 0.0 mm 715.00 W/m2
15:05 17.5 °C 10.8 °C 1015.1 hPa West 22.7 km/h 33.8 km/h 65% 0.0 mm 751.00 W/m2
15:10 17.7 °C 10.8 °C 1015.1 hPa West 19.5 km/h 35.4 km/h 64% 0.0 mm 717.00 W/m2